Location: Bramevaque
(42.9773°N, 0.5757°E)
Time: 11:23:32
(UTC+00:00)

NOSS 3-3 (A) - Pass Details

Date: 15 May 2026
Orbit: 691 x 1518 km, 63.4° (Epoch: 11 January)

Event Time Altitude Azimuth Distance (km) Brightness Sun altitude
Rises 19:54:37 0° 210° (SSW) 3,089 6.6 -7.2°
Reaches altitude 10° 19:56:49 10° 209° (SSW) 2,217 5.8 -7.5°
Maximum altitude 20:01:49 79° 123° (ESE) 816 3.6 -8.3°
Drops below altitude 10° 20:07:45 10° 38° (NE) 2,613 6.3 -9.1°
Sets 20:10:32 0° 38° (NE) 3,687 7.0 -9.5°
